Flag for Mongolia Weather past 2 weeks in Ulaanbaatar, Mongolia

Now
57 °F

Passing clouds.


Feels Like: 55 °F
Forecast: 27 / 48 °F
Wind: 10 mph from Southeast

Location: Ulan-Bator

Current Time: Sep 20, 2014 at 10:44:48 AM

Latest Report: Sep 20, 2014 at 10:30 AM


Visibility: N/A

Pressure: 29.98 "Hg

Humidity: 31%

Dew point: 27 °F

Location of UlaanbaatarLocation

Historic Weather in Ulaanbaatar — Graph

°F

Ulaanbaatar temperature yesterday

Maximum temperature yesterday: 64 °F (at 1:00 PM)
Minimum temperature yesterday: 28 °F (at 6:30 AM)
Average temperature yesterday: 47 °F

Past Weeks' High & Low Weather Summary

 TemperatureHumidityPressure
High77 °F (Sep 10, 2:30 PM)94% (Sep 6, 6:30 AM)30.24 "Hg (Sep 6, 6:30 AM)
Low21 °F (Sep 15, 6:00 AM)12% (Sep 10, 5:30 PM)29.68 "Hg (Sep 6, 4:30 AM)
Average49 °F58%29.98 "Hg
* Reported Sep 5 9:00 AM — Sep 20 9:30 AM, Ulaanbaatar, Weather by CustomWeather, © 2014

Note: Actual official high and low records may vary slightly from our data, if they occured in-between our weather recording intervals... More about our weather records

Advertising

Ulaanbaatar weather history for previous 24 hours

 ConditionsComfort  
Time TempWeatherWind HumidityBarometerVisibility
9:30 AM
Sep 20
46 °FSunny.No wind50%29.98 "Hg10 mi
9:00 AM43 °FSunny.1 mph57%29.98 "Hg10 mi
8:30 AM41 °FSunny.No wind57%29.98 "Hg10 mi
8:00 AM36 °FSunny.1 mph75%29.98 "Hg10 mi
7:30 AM28 °FClear.1 mph86%29.98 "Hg10 mi
7:00 AM25 °FClear.No wind86%29.98 "Hg10 mi
6:30 AM25 °FClear.No wind86%29.98 "Hg10 mi
6:00 AM28 °FClear.No wind86%29.98 "Hg10 mi
5:30 AM27 °FClear.1 mph86%29.98 "Hg10 mi
5:00 AM27 °FClear.1 mph86%29.95 "Hg10 mi
4:30 AM28 °FClear.1 mph80%29.95 "Hg10 mi
4:00 AM30 °FClear.No wind80%29.98 "Hg10 mi
3:30 AM27 °FClear.1 mph86%29.98 "Hg10 mi
3:00 AM27 °FClear.1 mph80%29.98 "Hg10 mi
2:30 AM28 °FClear.3 mph80%29.98 "Hg10 mi
2:00 AM32 °FClear.No wind75%29.98 "Hg10 mi
1:30 AM30 °FClear.1 mph75%29.98 "Hg10 mi
1:00 AM34 °FClear.3 mph65%29.95 "Hg10 mi
12:30 AM32 °FClear.1 mph69%29.95 "Hg10 mi
12:00 AM32 °FClear.1 mph69%29.95 "Hg10 mi
11:30 PM
Sep 19
34 °FClear.No wind65%29.95 "Hg10 mi
11:00 PM34 °FClear.1 mph65%29.95 "Hg10 mi
10:30 PM41 °FClear.No wind49%29.95 "Hg10 mi
10:00 PM39 °FClear.3 mph52%29.95 "Hg10 mi
9:30 PM39 °FClear.6 mph48%29.95 "Hg10 mi
9:00 PM39 °FClear.3 mph48%29.95 "Hg10 mi
8:30 PM41 °FClear.3 mph45%29.95 "Hg10 mi
8:00 PM45 °FClear.1 mph39%29.92 "Hg10 mi
7:30 PM50 °FSunny.1 mph35%29.92 "Hg10 mi
7:00 PM57 °FSunny.6 mph27%29.92 "Hg10 mi
6:30 PM61 °FSunny.6 mph22%29.89 "Hg10 mi
6:00 PM63 °FPassing clouds.8 mph20%29.89 "HgN/A
5:30 PM63 °FSunny.8 mph20%29.89 "Hg10 mi
5:00 PM64 °FPassing clouds.13 mph21%29.89 "HgN/A
4:30 PM64 °FPassing clouds.13 mph21%29.89 "HgN/A
4:00 PM64 °FPassing clouds.13 mph18%29.89 "HgN/A
3:30 PM64 °FPassing clouds.10 mph21%29.89 "HgN/A
3:00 PM64 °FPassing clouds.15 mph22%29.89 "HgN/A
2:30 PM63 °FScattered clouds.13 mph24%29.92 "HgN/A
2:00 PM64 °FScattered clouds.15 mph19%29.92 "HgN/A
1:30 PM64 °FScattered clouds.13 mph21%29.92 "HgN/A
1:00 PM64 °FPassing clouds.13 mph24%29.92 "HgN/A
12:30 PM63 °FPassing clouds.10 mph30%29.92 "HgN/A
12:00 PM61 °FPassing clouds.6 mph31%29.95 "HgN/A
11:30 AM59 °FPassing clouds.1 mph39%29.95 "HgN/A
11:00 AM55 °FPassing clouds.1 mph44%29.95 "HgN/A
10:30 AM52 °FSunny.1 mph50%29.95 "Hg10 mi
10:00 AM50 °FSunny.No wind54%29.98 "Hg10 mi
Weather by CustomWeather, © 2014

See weather overviewHow to use our weather pages